GW6015 Weather Reports


time (UTC)temp
F
wind
direction
speed
knots
gust
knots
rain 1hr
in
rain 24hr
in
rain mn
in
humidity
%
barometer
mb
20260502214602 51 200 1.7 4.3 0.00 0.01 0.01 84 1010.9
20260502213058 51 0 0.0 3.5 0.00 0.01 0.01 83 1010.9
20260502211556 52 0 0.0 2.6 0.00 0.01 0.01 83 1010.8
20260502210057 52 0 0.0 2.6 0.00 0.01 0.01 83 1010.7
20260502204610 52 204 0.0 2.6 0.00 0.01 0.01 82 1010.7
20260502203115 53 0 0.0 4.3 0.00 0.01 0.01 83 1010.8
20260502201557 51 208 2.6 5.2 0.00 0.01 0.01 87 1011.2
20260502200059 50 0 0.0 5.2 0.00 0.01 0.01 87 1011.1
20260502194601 50 0 0.0 2.6 0.00 0.01 0.01 86 1011.2
20260502193057 51 0 0.0 1.7 0.00 0.01 0.01 87 1011.4
20260502191559 51 0 0.0 3.5 0.00 0.01 0.01 86 1010.9
20260502190058 50 0 0.0 1.7 0.00 0.01 0.01 87 1011.8
20260502184603 51 0 0.0 3.5 0.00 0.01 0.01 87 1011.8
20260502183059 51 153 0.9 3.5 0.00 0.01 0.01 88 1011.8
20260502181617 50 0 0.0 3.5 0.00 0.01 0.01 88 1012.0
20260502170110 50 0 0.0 0.0 0.00 0.01 0.01 88 1012.1
20260502163056 49 0 0.0 2.6 0.00 0.01 0.01 88 1012.4
20260502161600 49 0 0.0 2.6 0.00 0.01 0.01 88 1012.2
20260502151606 49 207 0.0 2.6 0.01 0.01 0.01 88 1012.8
20260502140105 51 0 0.0 1.7 0.00 0.00 0.00 83 1012.5
20260502123057 50 0 0.0 2.6 0.00 0.00 0.00 84 1012.3
20260502121558 50 235 0.0 5.2 0.00 0.00 0.00 83 1013.4
20260502120106 50 207 1.7 3.5 0.00 0.00 0.00 83 1013.2
20260502114559 49 223 0.9 2.6 0.00 0.00 0.00 83 1012.9
20260502113100 49 0 0.0 1.7 0.00 0.00 0.00 83 1012.9
20260502111558 49 0 0.0 2.6 0.00 0.00 0.00 83 1012.2
20260502104557 48 0 0.0 0.0 0.00 0.00 0.00 84 1012.7
20260502103101 48 0 0.0 2.6 0.00 0.00 0.00 83 1012.7
20260502101556 47 0 0.0 2.6 0.00 0.00 0.00 84 1012.4
20260502080108 47 234 0.0 3.5 0.00 0.00 0.00 81 1012.3
20260502070101 47 0 0.0 2.6 0.00 0.00 0.00 79 1012.4
20260502064603 48 0 0.0 2.6 0.00 0.00 0.00 77 1012.6
20260502063058 48 0 0.0 0.0 0.00 0.00 0.00 77 1012.5
20260502061558 47 0 0.0 1.7 0.00 0.00 0.00 77 1012.8
20260502060058 47 0 0.0 0.0 0.00 0.00 0.00 77 1012.8
20260502054559 48 0 0.0 1.7 0.00 0.00 0.00 74 1012.8
20260502053056 49 206 0.9 2.6 0.00 0.00 0.00 73 1013.0
20260502051556 49 0 0.9 3.5 0.00 0.00 0.00 73 1013.2
20260502050057 49 192 0.9 3.5 0.00 0.00 0.00 72 1013.3
20260502044557 49 0 0.9 2.6 0.00 0.00 0.00 72 1013.4
20260502043100 49 0 0.0 3.5 0.00 0.00 0.00 72 1013.4
20260502041556 49 230 0.9 4.3 0.00 0.00 0.00 72 1013.2
20260502040107 49 211 0.0 3.5 0.00 0.00 0.00 72 1013.2
20260502034558 49 218 0.0 2.6 0.00 0.00 0.00 71 1013.3
20260502033057 50 0 0.0 4.3 0.00 0.00 0.00 70 1013.4
20260502031619 50 0 0.0 2.6 0.00 0.00 0.00 70 1013.5
20260502030100 50 238 0.0 4.3 0.00 0.00 0.00 69 1013.5
20260502024556 50 0 0.0 3.5 0.00 0.00 0.00 69 1013.5
20260502023059 50 0 0.9 3.5 0.00 0.00 0.00 69 1013.3
20260502021556 50 203 0.9 3.5 0.00 0.00 0.00 69 1013.2
20260502020111 50 219 0.0 5.2 0.00 0.00 0.00 69 1013.2
20260502014559 50 234 0.0 7.0 0.00 0.00 0.00 68 1013.2
20260502013106 50 207 1.7 7.8 0.00 0.00 0.00 68 1013.2
20260502011615 51 216 2.6 7.8 0.00 0.00 0.00 67 1013.1
20260502010055 51 242 1.7 7.0 0.00 0.00 0.00 67 1013.0
20260502004604 51 185 1.7 6.1 0.00 0.00 0.00 66 1012.7
20260502003132 52 226 1.7 8.7 0.00 0.00 0.00 65 1012.4
20260502001632 52 250 1.7 6.1 0.00 0.00 0.00 64 1012.2
20260502000059 53 191 1.7 7.0 0.00 0.00 0.00 62 1011.8
20260501234600 54 190 1.7 6.1 0.00 0.00 0.00 58 1011.6
20260501233058 55 243 1.7 7.0 0.00 0.00 0.00 53 1011.4
20260501231558 57 164 1.7 5.2 0.00 0.00 0.00 44 1011.2
20260501230056 57 284 1.7 7.8 0.00 0.00 0.00 41 1010.9
20260501224603 57 209 2.6 9.6 0.00 0.00 0.00 42 1010.9
20260501223058 58 230 3.5 7.8 0.00 0.00 0.00 41 1010.7
20260501221556 58 227 2.6 8.7 0.00 0.00 0.00 41 1010.8
20260501220058 58 193 2.6 8.7 0.00 0.00 0.00 41 1010.8